This demonstration page uses our WeatherBlox Daily Observations layout. Learn more.

Left ArrowRight Arrow

Hourly Observations for February 23, 2019

Temp ( °F °C ) Dew Point ( °F °C ) Humidity (%) Winds ( mph kmh ) Pressure ( in mb ) Visibility ( mi km ) Precip ( " mm )
12:53 am 00:53 Cloudy with Mist and Fog 51 10.6 51 10.6 100 100 E 8 13 30.19 1023 5 8 0.00 0.00
1:53 am 01:53 Cloudy with Mist and Fog 51 10.6 51 10.6 100 100 E 8 13 30.19 1022 5 8 0.00 0.00
2:53 am 02:53 Cloudy with Mist and Fog 50 10 50 10 100 100 E 7 11 30.16 1022 5 8 0.00 0.03
3:53 am 03:53 Cloudy with Mist and Fog 50 10 50 10 100 100 E 10 17 30.16 1021 5 8 0.00 0.00
4:53 am 04:53 Cloudy with Mist and Fog 50 10 50 10 100 100 E 9 15 30.16 1021 6 10 0.00 0.00
5:53 am 05:53 Cloudy 50 10 50 10 100 100 E 8 13 30.16 1021 10 16 0.00 0.00
6:53 am 06:53 Cloudy 49 9.4 49 9.4 100 100 E 13 20 30.17 1022 10 16 0.00 0.00
7:53 am 07:53 Cloudy with Mist and Fog 49 9.4 49 9.4 100 100 E 8 13 30.17 1022 6 10 0.00 0.00
8:53 am 08:53 Cloudy 49 9.4 49 9.4 100 100 ESE 9 15 30.19 1022 7 11 0.00 0.00
9:53 am 09:53 Cloudy 49 9.4 49 9.4 100 100 E 6 9 30.19 1022 9 14 0.00 0.00
10:53 am 10:53 Cloudy 49 9.4 49 9.4 100 100 E 8 13 30.17 1022 10 16 0.00 0.00
11:53 am 11:53 Cloudy with Mist and Fog 50 10 49 9.4 96 96 E 7 11 30.17 1022 6 10 0.00 0.00
12:53 pm 12:53 Cloudy 50 10 50 10 100 100 E 8 13 30.13 1020 8 13 0.00 0.00
1:53 pm 13:53 Cloudy 51 10.6 50 10 96 96 E 8 13 30.10 1019 10 16 0.00 0.00
2:53 pm 14:53 Cloudy 52 11.1 50 10 93 93 ENE 10 17 30.09 1019 9 14 0.00 0.00
3:53 pm 15:53 Cloudy 51 10.6 50 10 96 96 ENE 10 17 30.08 1019 10 16 0.00 0.00
4:53 pm 16:53 Cloudy 51 10.6 50 10 96 96 E 12 19 30.04 1017 9 14 0.00 0.00
5:53 pm 17:53 Cloudy 50 10 49 9.4 96 96 E 9 15 30.04 1017 9 14 0.00 0.00
6:53 pm 18:53 Cloudy with Mist and Fog 49 9.4 49 9.4 100 100 E 12 19 30.03 1017 5 8 0.00 0.00
7:25 pm 19:25 Cloudy with Mist and Fog 49 9.4 49 9.4 100 100 E 6 9 30.05 1018 6 10 0.00 0.00
7:53 pm 19:53 Cloudy with Mist and Fog 49 9.4 49 9.4 100 100 E 8 13 30.04 1017 5 8 0.00 0.00
8:53 pm 20:53 Cloudy with Mist and Fog 48 8.9 48 8.9 100 100 E 7 11 30.04 1017 3 5 0.00 0.00
9:53 pm 21:53 Cloudy with Mist and Fog 48 8.9 48 8.9 100 100 E 7 11 30.03 1017 3 5 0.00 0.00
10:53 pm 22:53 Cloudy with Mist and Fog 48 8.9 48 8.9 100 100 ESE 6 9 30.02 1017 5 8 0.00 0.03
11:53 pm 23:53 Cloudy with Mist and Fog 48 8.9 48 8.9 100 100 ESE 7 11 29.98 1015 6 10 0.01 0.25

Powered by AerisWeather